sat.trackr.live / text

‹ back to catalog

STARLINK-3335

NORAD 50806 · 2022-001D

PAYLOAD ACTIVE UNKNOWN

§ Identity

Operator
Country
US
Launch date
2022-01-06
Launch site
AFETR
Launch vehicle
Mass (kg)
RCS (m²)

Purposes: comms

External: N2YO · Heavens-Above · Gunter

§ Orbital elements

Epoch: 2026-09-19T21:29:48.287328Z

Period
93.85 min
Inclination
53.1605°
Eccentricity
0.0001133
Mean motion
15.34383944 rev/d
Perigee alt
462.0 km
Apogee alt
463.5 km
Semi-major
6,840.9 km
B*
-1.5358e-5
RAAN
358.2097°
Arg perigee
93.9675°
Mean anomaly
266.1458°
Rev number
25,998

§ Raw data

STARLINK-33351 50806U 22001D   26262.89569777 -.00000895  00000+0 -15358-4 0  99992 50806  53.1605 358.2097 0001133  93.9675 266.1458 15.34383944259981

JSON: /api/v1/satellites/50806 · /tle

For live sub-satellite position, see the globe view (requires WebGL).

§ Visibility from observer

Set your observer location to see the next 7 days of passes ≥ 10°. The values pass through the URL so the page stays shareable.

No JS? Fill the form by hand. The geolocation button needs JavaScript.